Wind_Speed
41 41 40 37 37 38 39 40 39 37 35 36 37 38 39 40 41 43 43 41 41 41 42 42 41 41 41 42 42 44 45 46 47 47 47 48 48 48 48 48 48 48 48 48 48 48 49 49 50 51 53 53 54 54 55 56 56 56 57 59 60 61 62 63 63 64 64 65 64 64 64 63 64 65 66 67 68 69 70 70 71 74 76 76 76 77 78 78
42 42 42 40 37 38 38 38 39 38 36 35 36 38 40 40 41 42 43 42 41 41 42 41 40 40 40 41 42 44 45 46 47 48 49 50 50 50 50 50 51 51 51 51 51 51 52 52 53 54 56 57 57 57 57 58 58 59 60 61 63 63 63 64 64 64 64 64 64 64 64 64 66 67 69 70 71 71 71 72 74 77 78 77 78 79 80 81
41 43 44 43 40 39 39 39 39 38 36 35 34 36 39 42 42 43 42 42 41 41 41 41 41 41 40 40 41 42 44 45 47 48 49 50 51 51 51 52 52 53 53 54 55 55 55 56 56 57 59 60 60 61 61 61 61 62 63 64 64 62 62 63 63 63 63 63 64 65 66 67 69 71 73 74 74 75 74 75 77 79 78 78 80 80 81 83
39 42 43 44 43 41 41 41 40 39 37 36 36 36 37 39 41 43 44 43 43 43 42 42 42 43 44 44 44 44 45 45 46 47 49 50 50 51 51 51 52 53 55 56 57 58 58 58 59 60 61 62 63 64 65 64 63 63 63 63 62 62 62 63 64 64 65 66 67 69 70 71 73 75 77 77 77 76 75 77 78 78 78 79 81 82 84 86
36 40 42 43 44 44 43 42 42 41 40 39 38 39 38 37 36 39 41 42 43 44 45 45 45 46 46 47 48 49 49 50 50 51 51 52 53 53 53 54 56 57 58 59 60 61 61 62 63 63 64 64 63 63 64 64 63 63 64 64 64 65 66 67 68 69 70 71 72 74 75 75 76 78 79 79 78 77 77 78 79 80 81 83 85 87 89 91
33 37 40 42 44 45 45 44 43 43 43 42 41 40 41 41 39 38 38 39 39 41 43 45 46 47 48 49 49 50 51 52 54 54 55 56 57 58 58 59 60 60 61 62 62 63 63 63 64 64 64 63 62 62 63 64 64 65 67 68 68 69 70 70 71 72 74 75 76 76 77 78 78 79 79 79 78 79 80 80 82 84 86 88 91 92 93 94
30 34 38 41 43 44 46 46 45 44 43 44 44 43 42 44 45 45 44 42 41 40 41 42 44 46 47 48 49 49 50 51 53 54 55 56 56 58 59 60 60 61 61 62 62 63 64 64 64 64 64 63 63 64 66 67 67 68 70 71 71 71 72 73 74 75 76 77 78 78 78 79 79 80 80 79 79 81 82 84 87 89 91 93 93 93 94 94
27 31 35 39 42 43 45 46 47 46 44 43 45 46 45 45 47 49 50 50 48 47 46 46 46 47 48 49 49 50 50 52 53 53 54 55 55 56 57 58 59 60 60 61 62 63 64 65 65 66 67 67 68 69 70 71 72 72 74 74 74 74 75 75 76 77 78 78 79 79 79 79 80 81 82 82 84 85 87 90 91 92 93 93 93 94 94 94
25 27 31 35 39 42 44 46 47 48 48 46 45 46 46 47 48 50 52 53 54 54 53 53 53 53 53 53 54 54 55 56 56 56 57 58 58 59 60 61 62 63 64 65 65 66 67 68 69 70 71 72 72 73 74 74 75 77 78 79 79 79 80 80 80 81 81 81 82 82 83 83 85 86 87 88 90 91 92 93 93 93 93 93 94 94 95 96
22 25 27 30 34 39 43 45 46 47 49 49 49 48 47 47 48 49 51 54 56 57 57 58 58 59 59 59 60 60 60 61 61 61 62 63 64 64 65 66 67 68 69 70 71 72 73 74 74 75 75 76 77 78 78 78 79 80 82 82 83 84 85 85 86 86 86 86 87 88 88 89 90 91 92 93 94 94 94 94 94 94 94 95 95 96 96 97
21 23 25 26 29 34 38 43 45 47 48 49 50 50 49 49 49 49 50 52 54 56 58 59 60 61 62 63 64 65 66 66 67 67 68 68 69 70 71 72 72 73 74 75 76 77 77 78 79 80 80 81 82 83 83 83 84 85 85 86 87 88 88 89 90 91 91 91 92 93 93 93 94 94 95 96 97 96 96 95 95 95 96 96 97 97 97 97
21 22 23 25 27 29 33 37 41 45 47 48 49 50 50 50 51 51 52 53 53 55 56 57 58 60 61 63 64 66 68 69 70 71 72 72 73 74 75 76 77 77 78 78 79 80 81 82 83 83 84 85 86 86 86 87 87 88 88 88 89 90 91 92 93 93 93 94 95 96 96 96 96 97 98 98 99 98 97 96 96 96 96 96 97 96 96 96
20 22 23 24 25 27 29 32 36 40 43 46 48 49 50 51 52 53 54 55 55 56 57 58 58 59 61 62 64 65 67 68 70 71 72 73 75 76 77 78 78 79 80 81 82 83 83 84 85 85 86 87 88 88 88 88 89 90 90 91 92 93 93 94 95 96 96 97 98 98 97 97 98 99 100 100 99 98 97 96 96 95 96 96 96 96 96 96
20 21 23 24 24 25 27 29 32 35 38 41 44 46 49 51 53 54 55 56 56 57 58 59 60 61 62 63 65 66 68 69 71 72 73 74 76 77 78 79 80 80 81 82 83 84 85 86 87 88 89 89 90 91 91 91 92 93 94 95 96 96 96 97 98 98 99 99 99 99 98 98 98 99 100 100 99 98 98 97 96 95 95 95 95 95 95 95
20 21 22 23 24 25 26 28 30 32 34 36 39 42 45 47 49 51 52 53 55 56 58 59 60 61 62 64 65 67 68 70 71 73 75 77 78 80 81 83 84 84 85 86 87 87 88 89 90 91 92 93 93 93 94 93 94 94 94 93 94 93 92 93 94 94 94 95 95 96 95 96 96 97 97 97 97 97 96 96 95 94 94 94 94 95 95 96
19 20 20 21 22 24 25 27 28 30 32 34 36 37 39 40 42 44 46 48 50 52 54 55 57 59 60 61 64 65 67 68 71 73 76 78 80 82 84 85 87 87 87 88 89 89 89 89 90 90 90 91 90 89 88 88 88 88 87 85 84 84 83 83 84 85 86 87 88 90 91 92 92 93 93 94 94 94 94 94 94 94 94 94 94 95 95 96
17 18 19 20 21 23 24 25 27 28 30 30 31 32 33 35 37 39 40 42 44 46 48 49 51 53 55 57 59 61 63 65 67 70 73 75 77 79 81 82 83 84 84 84 84 84 83 83 83 83 83 83 82 81 80 80 80 80 79 77 76 76 75 76 77 78 78 80 82 84 86 88 89 89 90 90 90 91 91 92 92 92 92 93 93 93 93 94
15 16 17 18 20 21 23 24 25 26 26 26 27 28 30 31 33 34 35 37 38 40 42 44 46 48 50 52 54 57 59 61 64 66 69 71 73 75 76 77 78 78 78 78 78 78 77 77 77 78 78 77 76 76 75 75 75 74 73 72 71 71 70 71 71 71 70 71 72 74 77 79 81 82 83 84 85 86 86 87 87 87 87 87 88 88 89 89
13 14 16 17 18 20 21 22 23 22 23 24 25 26 27 28 29 30 31 33 35 37 39 41 43 45 47 50 52 55 57 60 62 65 67 70 72 73 73 74 74 74 74 74 74 74 74 74 75 75 75 74 73 73 72 71 72 71 69 68 68 66 66 67 67 65 65 65 65 66 67 68 70 71 72 73 75 77 78 79 80 80 81 82 83 84 86 87
12 13 14 16 17 18 19 20 20 20 21 21 22 24 25 26 27 28 30 32 35 37 39 41 43 45 47 50 52 55 57 59 62 64 67 69 70 70 71 71 70 71 71 71 71 71 71 71 72 72 72 71 71 70 69 68 68 68 67 66 65 64 63 64 64 62 63 63 63 64 64 64 64 65 66 67 69 71 73 75 77 78 80 81 83 85 86 88
10 11 12 14 15 16 17 17 17 18 18 19 21 22 24 25 27 29 31 33 36 38 39 42 44 46 48 50 53 55 57 59 61 63 65 66 66 67 67 66 66 67 67 67 67 68 68 69 69 70 69 69 68 67 66 66 65 66 66 65 65 64 63 63 62 62 62 62 62 63 63 63 64 65 66 68 70 72 74 76 78 80 82 84 86 87 89 91
9 10 11 12 12 13 14 14 15 16 17 19 21 22 24 26 28 31 32 34 36 38 40 43 45 47 49 51 53 55 56 57 59 61 62 63 63 62 62 62 62 63 63 64 64 65 66 67 67 68 68 67 67 66 65 64 65 65 66 65 64 64 64 63 63 63 63 63 64 64 65 64 66 68 70 72 74 76 78 80 82 84 86 88 89 91 92 94
8 8 9 9 10 10 11 13 14 16 18 20 22 24 26 27 29 31 34 36 38 40 43 45 47 48 50 51 52 54 54 55 56 57 58 59 59 57 56 56 56 56 57 58 59 61 62 64 65 66 67 67 67 66 65 65 65 65 65 65 64 64 64 63 63 64 64 65 66 67 67 67 68 72 74 76 79 81 83 84 86 87 89 90 92 93 95 96
5 6 7 7 9 10 12 13 16 18 21 22 24 25 26 28 31 34 37 40 42 43 45 46 48 48 49 50 51 52 52 53 53 54 54 54 53 51 50 49 49 49 50 51 52 54 56 59 61 63 64 65 66 66 65 65 65 65 65 65 64 64 64 64 64 65 66 67 68 69 70 69 71 75 77 80 83 84 86 87 88 89 91 92 93 95 96 97
4 5 7 8 10 12 14 16 18 21 23 24 25 27 29 32 36 39 41 43 44 45 46 47 48 49 49 50 51 51 52 52 51 49 48 47 47 46 45 44 44 45 45 46 47 49 51 53 56 58 60 62 63 64 64 64 65 65 65 65 65 65 65 65 66 67 67 68 70 72 73 72 73 76 79 82 84 86 88 89 90 91 92 93 95 96 97 98
5 6 8 10 12 14 17 19 21 22 23 25 27 30 33 37 40 42 44 45 46 46 47 48 50 50 50 51 51 52 51 50 48 45 43 42 42 42 42 41 41 41 42 43 44 45 47 49 51 53 56 58 60 62 63 63 64 65 65 66 66 66 67 67 68 68 69 70 71 74 76 75 74 77 81 83 85 87 89 90 91 92 93 94 95 96 97 97
6 8 10 12 14 16 18 20 22 23 25 28 31 34 37 40 42 44 45 46 47 48 49 50 51 52 51 51 51 50 49 47 45 42 40 38 38 39 39 39 39 39 39 40 42 43 45 47 48 50 52 55 57 59 61 62 63 64 65 66 67 67 68 69 70 70 71 72 73 76 78 77 76 78 82 84 86 88 89 90 91 92 93 93 94 94 95 96
8 10 12 14 16 19 21 23 24 27 29 32 35 38 40 43 45 46 47 48 50 50 51 51 52 52 53 51 49 47 44 42 41 40 38 36 36 36 36 36 36 36 37 38 39 41 42 44 46 48 50 52 54 56 59 61 62 64 65 66 67 68 69 70 71 72 73 74 75 77 79 79 78 79 82 83 85 86 87 88 89 90 91 91 92 93 95 96
11 13 15 17 20 22 23 25 27 29 32 35 38 41 43 46 48 49 50 50 51 52 52 52 52 52 51 48 45 42 40 38 38 37 36 35 35 34 34 34 34 35 36 36 37 39 40 42 43 45 47 49 52 54 56 59 60 62 64 66 67 68 69 69 70 71 72 73 74 76 77 77 77 78 80 82 83 84 85 87 88 89 89 90 91 92 93 93
14 16 18 20 22 24 26 28 30 33 36 39 42 44 47 49 50 51 52 51 51 52 53 53 52 49 45 42 40 38 36 35 34 34 34 34 34 34 34 34 34 35 35 36 37 38 39 40 41 43 45 46 49 51 53 55 57 59 61 62 63 64 65 66 67 68 70 70 72 74 75 76 77 77 80 81 82 83 83 84 84 85 85 86 87 88 89 90
17 19 21 23 24 26 28 30 33 37 40 43 46 48 49 51 51 52 53 52 52 52 52 50 47 44 40 38 35 34 34 33 32 32 32 32 33 33 34 34 35 35 36 36 37 38 39 40 41 42 44 45 47 49 50 52 54 55 57 59 60 61 62 63 65 67 68 69 71 72 74 75 75 76 77 78 78 78 78 79 80 81 82 84 85 87 88 90
19 21 23 25 26 29 31 35 38 41 44 46 48 49 50 51 52 52 52 53 53 51 48 43 40 38 36 34 33 32 32 32 33 33 33 33 33 34 34 35 36 36 37 38 39 40 41 41 41 42 43 45 46 48 50 51 53 55 56 58 58 59 60 60 61 63 65 66 67 68 69 70 71 73 73 74 75 75 76 77 79 81 83 85 87 88 90 92
22 24 26 27 29 32 35 39 42 44 45 47 48 49 50 52 52 52 53 53 50 46 41 37 35 33 33 32 32 32 32 32 33 33 34 35 35 35 36 36 37 37 38 39 40 42 44 44 43 43 44 45 47 48 50 50 51 53 54 55 56 56 55 55 56 58 59 61 62 64 67 68 70 72 74 74 75 76 77 79 81 83 85 87 89 90 92 94
24 26 28 30 32 35 38 41 43 44 46 48 49 50 51 52 52 52 52 48 43 39 36 33 32 32 32 32 32 33 33 33 34 34 35 35 35 36 36 37 37 38 38 39 40 42 45 45 44 44 44 44 45 46 47 47 48 50 51 52 53 55 55 54 55 56 57 59 62 65 68 69 71 74 76 77 77 78 80 82 84 86 88 90 91 93 95 97
25 27 29 32 34 37 40 42 44 47 49 50 51 51 51 52 52 51 46 41 36 34 33 32 32 32 33 33 34 34 35 35 35 35 36 36 36 36 36 37 37 37 37 38 38 39 42 43 41 41 42 42 43 44 45 47 48 49 51 52 53 55 57 57 58 59 59 60 62 66 70 72 73 76 78 79 79 81 83 85 87 88 90 92 94 96 98 99
27 29 32 34 37 40 43 45 47 49 51 51 52 52 52 52 50 44 39 35 33 32 32 33 33 33 33 33 34 34 35 35 35 36 35 35 35 35 35 35 35 35 35 35 36 37 40 43 41 40 42 43 44 46 47 49 50 51 52 54 55 57 59 60 61 62 63 63 64 67 71 74 75 78 79 80 81 84 86 87 89 91 93 95 97 99 101 103
29 32 34 37 40 43 45 48 50 51 52 52 52 53 52 48 42 37 34 33 33 33 34 34 34 34 34 34 34 34 34 34 34 34 34 33 33 33 33 33 33 34 35 35 36 36 39 44 44 42 43 45 46 48 50 51 52 54 55 57 58 60 62 64 65 66 67 67 68 69 73 76 78 80 81 81 84 86 88 90 92 94 96 98 100 102 104 106
32 35 37 40 43 46 48 49 51 52 52 52 53 51 47 40 35 33 33 33 34 34 35 35 35 35 34 34 33 33 32 32 32 32 32 32 32 32 33 33 34 35 36 36 37 38 39 43 47 46 45 47 49 51 53 54 56 57 59 60 62 64 65 67 69 70 71 71 71 72 75 79 81 82 83 84 87 89 91 93 95 97 99 101 103 105 107 109
34 38 40 43 46 48 49 51 52 52 52 52 51 46 39 34 33 33 33 34 34 34 34 34 33 33 32 32 31 31 32 32 32 32 32 33 33 34 34 35 35 36 37 38 39 40 41 44 49 50 49 50 53 55 57 59 61 62 64 65 67 68 69 71 73 75 75 75 75 75 76 80 84 84 85 87 89 92 94 96 98 100 102 104 106 108 110 112
37 40 43 45 47 48 50 51 51 52 52 50 44 38 33 32 33 33 34 34 34 33 33 32 31 31 31 30 30 30 30 31 32 32 33 34 34 34 35 36 37 38 39 41 42 44 46 48 52 55 55 56 57 59 61 63 65 66 67 69 70 71 72 74 75 78 79 80 81 80 79 82 86 87 88 91 93 95 98 100 102 104 106 107 109 111 112 114
40 42 45 46 47 49 50 51 51 51 49 43 36 33 32 33 33 34 34 33 33 32 31 30 30 30 30 30 30 30 30 31 32 32 32 33 34 35 36 38 41 43 45 47 48 49 51 53 55 57 59 60 61 63 64 66 68 69 70 71 72 74 75 76 77 79 81 83 85 84 84 86 89 91 92 94 97 99 101 103 105 107 108 110 111 112 113 114
41 43 45 46 47 49 49 50 51 48 42 35 32 32 33 33 33 33 32 31 31 30 30 29 29 29 29 30 30 31 31 31 31 32 33 35 37 40 42 44 46 48 50 51 53 54 54 56 57 59 60 61 63 65 67 69 70 71 72 73 74 76 77 78 79 81 82 85 87 89 89 91 93 95 97 98 100 102 104 106 107 109 110 110 111 111 112 112
42 43 44 46 47 48 49 50 47 40 34 32 32 33 33 33 32 31 30 30 29 29 28 28 28 29 29 30 30 31 32 33 34 36 38 40 43 45 46 48 50 51 53 54 56 57 57 58 59 61 62 64 66 68 70 72 73 74 75 76 77 79 80 81 83 84 85 88 91 93 94 96 98 99 100 102 103 104 105 106 107 108 108 108 108 109 109 109
41 43 44 46 47 48 48 45 38 33 32 32 33 32 32 31 30 29 29 28 28 28 28 28 28 29 29 29 30 31 33 36 38 40 42 44 46 47 49 50 52 53 55 57 58 59 60 60 61 62 63 65 68 69 71 74 76 77 77 78 80 81 83 85 86 88 89 92 94 96 98 99 101 102 102 103 104 104 105 105 105 105 105 105 105 105 105 105
41 43 44 46 47 47 42 36 32 31 32 32 32 31 30 29 28 27 27 27 27 28 28 28 28 28 29 30 32 34 36 38 40 42 44 45 47 49 51 53 54 56 58 59 61 62 63 65 65 66 66 67 69 70 71 74 76 78 80 81 82 84 86 88 90 92 93 95 97 99 100 101 102 102 102 102 102 102 102 102 102 102 101 101 101 101 101 101
41 43 44 46 45 40 34 31 31 32 32 31 30 29 28 27 26 26 26 26 27 27 27 28 28 30 32 34 36 38 40 42 43 45 46 48 50 52 54 55 57 59 61 62 63 65 67 68 70 71 71 71 73 75 76 77 79 80 82 84 86 88 90 92 94 95 97 97 99 100 100 100 101 101 100 100 99 99 99 99 99 98 98 98 98 98 99 99
41 43 45 43 38 33 31 31 32 32 31 30 28 27 26 25 25 25 26 26 26 26 27 28 30 32 35 37 39 42 44 45 47 48 50 52 54 55 57 59 60 62 63 65 66 68 69 71 73 75 76 76 78 79 80 82 83 84 86 88 90 92 94 96 97 98 98 99 98 99 99 98 98 97 97 96 96 95 95 95 95 95 95 95 96 96 97 98
42 44 42 37 32 31 31 32 31 30 29 28 26 25 25 25 25 25 26 26 26 26 28 30 33 35 37 39 41 43 45 48 50 52 54 56 57 59 60 62 63 65 66 68 69 70 71 73 75 78 79 80 81 83 84 86 87 89 90 92 94 96 97 98 98 98 98 98 97 96 95 95 94 93 92 92 91 91 91 91 92 92 92 93 94 94 95 96
43 41 36 31 30 31 31 31 30 29 27 26 25 24 24 24 25 25 25 26 27 28 30 32 34 36 38 40 42 44 46 49 52 54 56 58 59 61 63 64 66 67 69 70 71 72 73 75 76 79 82 83 85 87 88 90 92 94 95 96 97 97 98 98 97 97 96 95 94 92 92 91 90 90 89 89 89 88 89 89 90 90 91 91 92 93 94 96
41 36 31 30 31 31 30 29 28 26 25 24 24 24 24 24 24 25 25 26 28 30 32 34 37 39 41 43 45 47 49 51 53 55 57 59 61 62 65 66 68 69 71 71 73 74 75 77 78 81 83 86 88 90 93 94 96 97 97 97 97 97 96 95 94 93 92 91 90 89 88 88 87 87 87 87 87 86 87 87 88 89 89 90 91 92 94 95
36 31 29 31 31 30 29 27 26 24 24 23 23 23 23 23 24 25 27 28 30 33 35 37 40 42 44 47 49 51 53 55 56 57 58 61 63 65 67 69 70 71 72 74 75 76 78 79 81 83 85 88 91 93 96 97 97 97 97 96 95 94 93 92 91 89 87 86 85 85 84 84 84 84 84 84 84 84 84 85 85 86 87 88 89 91 93 94
31 29 30 30 29 28 27 25 24 23 23 22 23 23 23 24 25 26 28 30 33 35 38 40 43 45 48 51 53 55 56 58 59 61 62 65 66 68 69 71 72 73 74 76 77 79 81 83 84 86 88 91 93 94 96 96 96 95 94 93 91 89 88 86 86 85 83 82 81 81 80 80 80 80 80 80 81 81 82 82 83 84 85 87 89 91 92 94
Wind_Direction
212 208 205 208 214 218 221 225 229 231 234 235 233 231 231 231 230 229 230 233 237 242 248 252 254 253 252 250 248 248 249 250 251 251 252 252 253 254 255 255 256 256 256 256 257 257 258 258 259 259 260 260 261 261 262 263 263 263 264 265 266 267 267 268 268 268 269 270 270 270 270 271 272 274 275 276 277 277 277 278 279 278 277 278 279 279 279 279
215 212 207 207 211 216 220 224 228 231 236 238 237 235 233 232 232 232 233 235 237 241 245 249 253 255 256 256 255 254 253 252 253 253 254 255 256 257 257 257 258 258 258 258 259 259 259 260 261 261 262 263 264 264 264 266 267 268 269 270 270 271 271 271 271 271 271 271 271 271 271 272 273 275 276 277 278 279 279 280 279 277 278 278 278 278 278 279
217 216 212 209 209 213 217 221 225 229 232 236 238 239 238 237 236 236 237 239 241 242 244 247 250 252 254 256 257 258 258 258 258 258 258 258 259 259 259 260 260 260 260 260 260 261 261 262 263 264 265 266 266 267 267 267 269 271 271 272 272 272 272 272 272 272 273 273 273 273 273 274 275 277 278 279 279 280 280 279 277 277 278 277 277 277 277 278
219 219 218 214 212 212 215 219 223 226 228 232 236 237 239 241 242 243 243 244 244 244 245 246 247 250 252 254 255 256 258 259 259 260 262 263 263 263 262 262 263 263 263 263 263 264 264 265 266 267 268 269 269 270 269 269 270 271 271 271 272 272 273 273 274 274 275 275 276 276 277 277 278 279 279 279 279 279 278 276 276 276 276 276 276 277 277 278
221 221 221 220 217 215 216 218 221 225 228 230 233 235 235 236 239 244 247 248 248 248 249 249 249 249 251 253 255 256 257 257 257 258 259 261 262 263 262 262 262 263 263 264 265 266 267 267 268 268 269 270 271 272 271 271 272 273 273 274 274 275 275 275 276 276 277 277 278 278 278 278 278 278 278 278 278 277 276 275 275 275 276 276 277 278 279 279
223 223 223 223 223 221 219 219 221 223 227 229 231 234 235 233 233 237 242 246 248 250 251 253 254 254 255 256 257 257 258 259 259 259 259 260 261 261 262 263 263 263 264 265 266 267 268 268 269 269 270 271 272 273 273 273 274 275 276 276 276 276 276 276 276 276 277 277 277 278 277 277 277 276 276 276 276 275 274 274 275 276 277 278 278 279 279 280
224 224 225 225 226 226 224 223 223 223 225 227 229 232 235 236 235 236 238 240 242 244 247 249 251 253 254 256 257 258 259 259 260 261 261 261 262 262 263 264 265 265 265 266 267 267 268 268 268 268 268 269 270 271 272 272 273 274 274 275 275 276 276 276 276 276 276 276 276 276 276 276 275 275 275 274 274 274 274 275 276 277 278 279 279 280 280 280
226 225 226 227 228 229 229 228 227 227 227 227 227 230 233 236 237 238 239 240 241 242 244 245 247 248 250 251 253 254 255 256 257 259 260 260 261 261 262 263 264 264 265 265 266 266 266 266 266 266 266 266 267 267 268 269 271 271 272 273 274 274 274 274 274 274 274 274 274 274 274 274 274 274 274 274 274 274 275 276 277 278 278 279 279 279 279 280
229 228 228 229 229 230 232 232 232 232 232 231 230 231 232 234 237 239 240 241 242 243 244 246 247 248 249 251 252 253 254 255 255 256 258 259 259 259 260 261 262 263 263 264 264 265 265 266 266 266 266 267 267 267 268 268 269 269 270 271 272 273 273 273 273 273 273 273 273 273 273 273 273 274 274 275 275 276 276 277 277 278 279 279 279 279 279 279
234 233 231 231 231 232 233 234 236 236 236 236 236 236 235 236 237 239 241 243 244 245 246 248 249 250 250 252 253 254 255 256 257 257 258 259 260 260 261 262 262 263 264 264 265 266 266 266 267 267 268 268 269 269 269 270 270 270 270 271 272 272 273 273 273 273 273 273 274 274 274 274 274 275 275 275 276 276 276 277 277 278 278 277 277 278 278 278
240 238 235 234 234 235 235 236 237 239 239 240 241 241 242 242 242 243 243 244 245 247 248 250 251 252 253 254 255 257 258 258 259 260 260 261 261 262 262 263 263 264 264 265 265 266 267 267 268 268 269 269 270 270 271 271 271 271 272 272 273 273 274 274 274 274 275 275 275 275 275 275 275 275 275 275 276 276 276 276 276 276 276 276 277 277 277 278
247 245 241 239 237 237 238 238 239 240 241 242 243 244 246 247 248 248 248 248 248 249 250 251 253 254 255 256 257 259 260 260 261 261 262 263 263 264 264 264 264 264 265 265 266 266 267 267 268 268 269 269 270 270 271 272 272 273 273 273 274 274 274 274 275 275 275 275 275 275 275 275 275 275 275 275 275 275 275 274 274 274 274 275 275 276 277 277
251 250 248 245 242 241 241 241 241 242 243 244 246 247 248 249 250 252 253 254 255 255 256 256 256 257 258 258 259 260 261 262 263 263 263 264 264 264 265 265 265 266 266 266 267 267 268 268 269 269 270 270 271 271 272 272 273 273 273 273 274 274 274 274 274 275 275 275 274 274 274 274 273 273 273 273 273 273 272 272 272 272 273 274 275 276 276 277
253 252 251 250 249 248 246 246 246 246 246 247 248 249 250 251 253 255 257 258 260 261 262 262 263 263 263 263 263 264 264 265 266 266 266 266 266 266 266 266 266 267 267 268 268 269 269 270 270 270 271 271 272 272 272 273 273 273 273 274 274 274 274 274 274 274 274 274 274 273 273 272 272 272 272 272 272 272 272 272 272 273 273 274 275 275 276 276
253 252 253 253 253 253 253 251 250 250 250 250 251 251 253 255 257 258 260 262 263 264 265 266 267 268 268 269 269 269 269 270 270 270 270 270 270 269 269 269 269 269 269 269 270 270 271 271 272 272 272 273 273 273 274 274 274 274 274 274 275 275 275 274 274 274 273 273 273 273 272 271 271 271 271 271 271 272 272 273 273 273 274 274 274 275 275 275
254 253 253 254 255 255 255 255 255 255 254 254 255 257 259 260 261 262 263 264 266 267 268 269 270 271 272 272 272 272 272 272 272 272 272 272 272 272 272 272 272 272 271 272 272 272 272 273 273 273 273 274 274 274 275 275 275 275 275 275 275 275 275 275 275 274 274 274 273 272 272 271 270 270 270 271 271 272 272 273 273 273 274 274 274 275 275 275
257 255 254 253 254 255 256 257 258 259 260 262 264 265 265 266 266 267 267 268 270 271 272 272 273 273 274 274 274 274 274 274 273 273 273 273 273 273 273 273 274 274 274 274 274 274 274 274 274 274 274 274 275 275 275 275 275 276 276 276 276 276 276 276 276 276 276 275 274 273 273 272 271 271 271 271 272 272 273 273 274 274 275 275 275 276 276 276
259 257 255 254 254 256 257 259 261 264 267 270 271 271 271 271 272 273 274 275 276 276 277 277 277 278 278 278 278 277 277 277 276 276 276 275 275 275 275 275 275 276 276 276 276 276 276 275 275 275 275 275 276 276 276 276 276 277 277 278 278 278 278 278 278 278 278 278 277 277 276 276 276 275 274 274 274 274 274 275 275 276 276 276 277 277 278 278
259 258 256 255 256 257 259 262 265 269 271 272 273 274 275 276 277 280 281 282 283 283 284 283 283 283 283 282 282 281 281 280 279 279 279 278 278 277 277 277 277 277 277 277 276 276 276 276 276 276 276 276 276 276 276 277 277 278 278 278 279 279 280 279 279 280 280 279 279 279 279 278 279 278 278 277 277 277 277 277 278 278 278 278 278 279 279 280
260 260 259 258 258 260 262 265 268 270 272 273 274 277 279 282 284 286 287 288 289 289 288 287 287 286 285 285 284 283 283 282 282 281 280 280 280 280 280 279 279 278 277 277 276 276 275 275 275 275 275 276 276 276 277 277 278 279 279 279 279 280 280 280 281 281 280 280 279 279 279 279 279 280 281 281 281 281 281 281 281 281 281 281 281 281 282 282
261 263 263 263 262 263 265 267 269 270 272 274 277 281 285 288 290 290 289 289 289 289 289 289 289 288 287 286 285 284 284 284 283 283 282 282 282 282 281 281 279 278 277 276 276 275 275 274 274 275 275 275 276 276 276 277 278 279 279 280 280 280 279 280 280 280 281 281 282 282 282 282 283 284 284 283 283 283 283 283 283 283 283 282 282 283 283 283
262 264 265 265 265 266 267 268 270 273 276 279 283 287 290 291 291 290 290 290 290 291 291 292 291 290 289 288 287 286 286 285 285 285 285 285 284 284 283 281 280 278 277 276 275 275 274 274 274 274 275 275 276 276 277 277 278 279 280 281 281 282 282 283 284 284 285 285 286 285 285 285 285 284 283 282 282 282 282 282 282 282 282 282 283 283 283 283
266 265 265 266 265 266 269 271 274 278 282 285 288 290 291 292 293 295 297 298 297 296 296 295 294 293 292 291 290 289 289 288 288 287 288 287 286 285 284 282 280 279 278 276 275 274 274 273 273 273 274 274 275 276 277 278 279 279 281 282 283 283 284 284 285 285 285 286 285 285 285 284 283 282 281 281 281 281 281 281 281 282 282 282 282 282 283 283
266 265 265 266 268 271 274 277 281 283 285 287 289 292 296 300 303 305 305 304 302 300 299 297 297 296 295 295 294 293 293 292 291 291 291 290 289 288 286 284 282 281 279 278 277 276 275 274 273 273 273 273 274 275 276 277 278 279 281 282 282 283 283 283 283 283 283 283 283 283 283 283 282 281 281 281 281 281 281 281 281 281 282 282 282 282 282 283
266 271 275 278 280 281 281 283 284 285 287 290 296 302 307 309 309 308 306 305 303 302 301 301 300 300 299 299 299 298 298 297 296 295 294 293 291 291 289 287 286 284 283 281 280 279 277 276 275 275 274 274 274 275 276 277 278 279 280 281 281 282 282 282 282 282 282 282 282 282 281 281 281 281 281 280 281 281 281 281 281 282 282 282 282 282 283 283
282 286 287 288 287 286 286 287 288 290 295 301 306 309 309 308 308 307 306 305 305 304 304 304 304 303 303 303 302 302 302 301 299 299 297 296 294 294 293 292 290 289 287 286 284 282 281 279 278 277 276 276 275 275 276 277 277 278 279 280 281 281 282 282 282 282 281 281 281 281 281 281 281 280 280 280 280 281 281 281 282 282 282 282 283 283 283 284
293 293 294 295 295 296 296 296 297 300 303 305 306 306 306 307 308 308 308 308 308 307 307 307 307 306 305 304 304 303 303 302 301 301 300 299 298 296 296 295 295 294 292 290 288 286 284 283 281 280 279 277 277 276 276 277 277 278 279 280 280 281 281 282 282 282 281 281 281 281 281 281 281 280 280 280 281 281 281 282 282 282 283 283 284 284 284 284
303 304 307 307 306 305 304 304 305 305 304 304 304 305 307 309 310 311 311 311 310 309 309 308 308 307 306 305 305 304 304 303 303 303 303 302 301 300 299 298 297 296 295 294 292 290 288 286 285 283 281 280 279 278 278 278 278 278 279 280 280 281 282 282 282 283 283 283 283 283 283 283 283 282 282 282 282 282 283 283 283 284 284 285 285 285 285 284
312 312 312 311 309 307 307 307 306 305 304 305 306 308 310 312 313 313 313 312 311 310 310 309 308 308 307 306 306 306 305 305 305 305 306 306 305 304 303 301 301 299 298 297 295 293 291 290 288 287 285 284 282 282 281 281 280 281 281 281 282 282 283 283 284 284 284 285 285 285 285 285 285 284 284 284 284 284 284 284 285 285 286 286 286 285 285 285
315 313 311 311 309 308 307 306 305 305 306 308 309 311 313 314 314 314 313 312 311 311 310 310 309 309 308 308 308 307 307 307 307 308 308 308 308 307 306 305 304 302 301 300 298 296 294 292 291 290 288 287 286 285 285 284 284 283 284 284 284 284 285 286 286 287 287 287 287 287 287 287 286 286 285 285 285 285 286 286 287 287 287 287 287 286 286 286
312 310 309 310 310 309 308 308 308 309 310 311 312 313 313 313 313 313 312 312 312 311 311 311 311 310 310 310 310 310 311 311 311 311 310 310 310 309 309 308 307 305 304 303 301 299 297 296 295 294 293 292 291 290 289 288 288 288 287 287 287 288 288 289 289 289 289 288 288 288 288 288 288 287 286 287 287 287 288 289 289 289 288 288 287 287 287 287
310 309 308 310 311 312 312 312 312 312 313 313 313 313 313 313 313 313 313 313 313 313 312 313 313 312 312 313 313 314 315 315 315 314 314 313 312 312 311 310 309 308 307 306 304 302 299 298 297 297 296 296 295 294 293 292 292 291 291 290 290 290 290 290 290 290 290 290 290 290 290 290 290 289 289 289 289 290 290 290 289 288 288 287 287 287 287 287
311 311 311 313 314 314 314 314 314 314 315 315 315 315 314 314 314 314 314 314 314 314 315 315 315 315 315 315 316 317 317 316 316 316 316 315 314 314 313 312 311 310 309 308 307 305 303 302 301 301 300 299 298 297 296 296 295 294 294 294 294 293 293 293 293 293 293 293 293 293 292 292 291 291 290 290 290 291 290 290 289 288 288 288 288 288 288 288
311 312 313 314 314 314 314 315 316 317 318 318 317 315 315 314 315 315 315 315 315 316 317 317 318 318 318 318 318 318 317 317 316 316 315 314 314 313 313 312 311 310 310 309 308 307 305 305 306 306 305 304 303 302 301 301 300 300 299 299 299 299 298 297 296 295 294 294 294 293 292 292 292 292 291 291 292 292 291 290 290 290 289 289 289 289 289 288
309 310 311 312 312 313 315 316 318 320 320 318 317 316 316 316 316 316 316 316 317 317 317 318 319 319 319 319 319 318 318 317 317 317 316 316 315 315 314 314 313 313 313 313 312 311 309 309 310 312 311 310 308 308 307 305 304 303 302 302 302 301 300 299 298 296 295 295 294 294 293 293 293 292 292 293 293 293 292 291 291 291 290 290 290 290 290 289
308 309 310 311 312 313 315 318 319 320 319 318 317 317 317 317 317 317 317 318 318 318 318 318 319 319 319 319 318 318 319 319 319 319 319 319 320 320 320 320 319 319 319 319 319 318 315 313 314 315 314 313 311 310 309 307 306 305 304 303 303 302 301 300 300 299 298 297 296 295 294 294 294 293 293 294 294 293 292 292 292 292 291 291 291 291 291 290
307 308 309 310 311 313 316 318 319 318 318 318 317 317 317 317 318 318 319 318 319 319 320 320 320 320 320 320 321 321 322 322 323 323 324 324 325 325 325 325 324 324 323 323 322 321 319 316 315 316 315 314 312 311 309 308 307 306 306 305 304 304 303 302 301 300 299 299 298 297 296 296 295 294 295 295 294 294 293 293 293 292 292 292 291 291 291 291
307 308 309 310 312 315 316 317 318 317 317 317 318 318 318 318 319 319 320 320 320 321 321 321 322 322 323 324 325 326 327 328 329 329 329 329 329 329 329 328 328 327 326 325 324 322 321 318 316 317 316 315 313 312 310 309 308 308 308 308 307 306 306 305 303 302 301 301 300 299 298 297 296 296 297 296 295 294 294 293 293 292 292 291 291 291 291 291
307 308 309 311 314 315 316 317 317 317 317 318 318 318 319 320 320 320 321 321 321 322 322 323 324 326 327 329 331 332 333 333 333 333 333 334 334 333 333 331 329 328 326 324 323 322 321 319 317 317 317 316 315 314 313 312 311 311 311 310 309 308 307 306 305 304 303 302 301 300 299 298 297 297 297 296 295 294 294 293 293 293 292 292 292 292 292 291
306 308 310 312 314 316 316 316 316 316 317 318 319 320 321 321 321 321 322 322 323 323 325 326 328 330 332 333 335 335 336 336 336 337 337 336 335 333 331 329 327 326 325 323 323 322 321 321 319 318 318 318 317 315 314 313 313 312 312 311 310 309 307 306 305 304 304 303 302 301 300 298 297 297 297 296 296 295 294 294 294 294 294 293 293 293 293 292
306 308 311 314 315 316 316 316 316 317 318 319 320 321 322 322 322 323 323 324 325 327 329 331 333 334 335 336 336 337 338 338 337 337 335 333 332 331 330 330 329 328 327 326 325 324 323 322 320 319 319 318 317 315 314 313 312 312 311 310 310 308 307 306 305 305 304 303 302 302 301 299 298 298 298 297 296 296 296 296 295 295 295 294 294 294 293 293
307 311 313 315 316 315 315 316 317 318 320 321 321 322 322 323 323 324 325 327 330 332 333 334 335 336 337 338 339 338 338 337 335 334 334 333 333 333 333 332 331 329 328 326 325 324 323 322 320 319 318 317 316 315 314 313 312 312 311 311 309 308 307 306 305 304 304 303 302 302 301 300 299 299 298 298 297 297 297 297 296 296 295 295 295 294 293 293
311 314 315 316 315 316 317 318 319 320 321 322 322 322 323 324 326 327 330 332 333 334 335 336 338 339 339 339 338 337 337 337 337 337 337 336 335 334 333 331 329 328 326 325 324 323 322 321 320 319 319 318 317 316 315 314 313 312 312 311 310 308 307 307 306 305 304 303 302 302 302 301 300 300 300 299 299 298 298 298 297 297 296 296 295 295 295 295
314 316 316 316 316 317 318 319 320 322 322 322 323 324 325 327 329 332 333 334 334 336 337 339 340 339 338 338 337 338 339 339 339 338 337 335 333 332 330 328 327 326 325 324 324 323 322 321 320 319 319 318 317 316 315 314 313 313 312 311 310 309 308 307 306 305 304 304 303 302 302 302 301 301 301 300 300 299 299 298 298 297 297 297 297 297 297 297
317 317 317 317 317 318 319 320 322 322 323 323 324 326 329 331 333 334 335 336 337 340 340 340 339 337 337 339 339 340 340 339 337 336 334 333 331 329 328 327 326 325 325 325 324 324 323 322 321 320 319 318 317 316 315 314 313 312 312 311 310 309 308 307 306 305 305 304 303 303 303 302 302 302 302 301 301 300 300 299 299 299 299 299 299 299 298 298
318 318 317 318 319 320 321 322 323 323 324 326 328 330 332 334 335 336 337 339 341 341 339 338 338 339 340 341 340 339 338 337 335 333 331 330 329 328 327 327 326 326 326 326 326 325 324 323 322 321 321 320 318 317 316 315 313 312 311 311 309 308 308 307 306 306 305 305 304 304 304 304 303 303 303 302 302 301 301 301 301 301 301 301 301 300 300 300
318 318 319 320 321 322 323 323 324 325 327 329 331 333 334 336 337 339 341 341 340 338 337 338 341 342 342 341 339 337 335 334 332 331 330 329 328 328 328 328 327 327 327 327 326 326 325 324 323 322 321 321 319 318 316 315 314 313 312 311 310 309 308 308 307 307 307 306 306 305 305 304 304 304 303 303 303 302 302 302 302 302 302 302 301 301 301 300
319 320 320 321 322 324 324 325 325 327 330 332 334 335 336 339 341 342 341 338 336 337 339 341 342 342 340 338 336 334 332 331 331 330 329 329 329 328 328 328 328 328 328 328 327 327 326 325 323 322 321 320 319 317 316 315 314 313 312 312 311 310 310 309 309 308 308 307 307 306 306 305 305 304 304 304 304 304 304 304 304 303 303 303 302 302 302 301
320 321 322 323 324 325 325 326 328 330 333 335 336 338 340 342 341 339 337 335 336 338 341 341 340 339 337 334 332 331 330 330 330 329 329 329 329 329 329 329 329 329 329 328 328 327 326 325 323 322 321 320 318 317 316 315 315 314 314 313 312 311 311 310 309 309 308 308 308 308 307 306 306 306 306 306 307 306 306 305 305 305 305 304 304 303 302 301
322 322 323 325 325 325 327 329 331 334 335 337 338 340 342 341 338 334 334 336 338 340 341 340 338 336 333 331 330 330 329 330 330 330 330 330 330 330 330 330 330 330 329 328 327 326 325 324 323 322 320 319 318 317 317 316 315 315 314 313 313 312 311 311 310 310 309 309 309 309 308 308 308 308 309 308 308 308 307 307 306 306 306 305 304 303 302 302
322 323 324 325 326 327 330 332 334 335 337 338 340 341 340 336 333 333 335 339 341 340 340 337 335 333 331 330 330 331 331 331 331 331 331 331 331 331 331 331 331 330 329 328 327 326 325 324 323 322 320 319 319 318 317 316 315 315 314 313 313 312 312 312 311 311 310 310 310 309 309 310 310 309 309 308 308 308 308 307 306 306 305 304 303 303 303 303
323 324 325 327 328 330 332 334 335 336 338 340 341 339 335 332 333 336 339 340 341 339 337 335 333 331 330 331 331 332 333 333 333 333 333 333 333 333 332 332 331 330 329 328 327 326 325 324 323 322 321 319 319 318 317 316 315 315 314 314 314 313 313 313 311 311 311 312 311 311 310 310 310 309 309 309 308 308 307 306 306 305 305 305 305 305 305 306
Height
10720 10723 10725 10726 10728 10730 10732 10734 10736 10738 10739 10741 10743 10745 10746 10747 10748 10749 10749 10750 10750 10750 10750 10750 10750 10751 10752 10753 10753 10753 10753 10754 10754 10754 10754 10754 10754 10754 10754 10754 10754 10753 10753 10753 10753 10753 10753 10753 10752 10752 10751 10751 10751 10750 10750 10748 10748 10749 10748 10746 10743 10744 10743 10742 10741 10740 10739 10738 10737 10737 10736 10735 10734 10732 10729 10727 10726 10725 10724 10724 10722 10716 10713 10714 10713 10710 10708 10707
10718 10721 10723 10724 10726 10727 10730 10731 10733 10735 10737 10738 10740 10742 10743 10744 10745 10746 10747 10747 10748 10748 10748 10748 10748 10748 10748 10749 10749 10750 10750 10750 10750 10750 10750 10750 10750 10750 10750 10750 10750 10749 10749 10749 10749 10748 10748 10748 10748 10747 10746 10745 10745 10745 10744 10743 10743 10743 10742 10739 10738 10739 10737 10735 10735 10733 10733 10732 10730 10730 10729 10728 10727 10725 10722 10720 10719 10717 10718 10717 10712 10706 10706 10707 10705 10702 10700 10698
10717 10719 10721 10723 10724 10726 10727 10729 10731 10733 10735 10736 10737 10738 10740 10741 10742 10743 10744 10745 10745 10745 10745 10745 10745 10746 10746 10746 10746 10746 10746 10746 10746 10746 10746 10746 10746 10746 10746 10746 10745 10745 10744 10744 10743 10743 10743 10743 10743 10742 10741 10740 10739 10739 10738 10737 10737 10737 10735 10733 10732 10733 10731 10729 10728 10727 10726 10726 10724 10723 10722 10722 10720 10717 10715 10713 10711 10711 10712 10708 10701 10699 10700 10699 10695 10694 10692 10689
10715 10717 10719 10721 10723 10724 10725 10727 10729 10730 10732 10734 10735 10736 10737 10738 10739 10740 10741 10742 10742 10742 10742 10742 10743 10743 10743 10743 10743 10743 10742 10742 10742 10742 10742 10742 10742 10742 10742 10741 10741 10740 10739 10739 10738 10738 10738 10737 10737 10736 10735 10734 10733 10733 10732 10731 10732 10730 10729 10727 10726 10726 10725 10723 10722 10721 10720 10719 10718 10716 10715 10714 10713 10710 10707 10706 10705 10705 10704 10698 10693 10693 10692 10690 10686 10685 10684 10681
10714 10715 10717 10719 10721 10723 10724 10725 10727 10728 10730 10732 10733 10734 10735 10736 10737 10737 10738 10738 10739 10739 10739 10739 10740 10740 10740 10740 10739 10739 10739 10739 10738 10738 10738 10738 10738 10737 10737 10737 10736 10735 10734 10734 10733 10733 10732 10732 10731 10730 10729 10728 10727 10726 10725 10725 10725 10723 10721 10721 10720 10719 10718 10717 10715 10714 10713 10712 10710 10709 10707 10706 10705 10702 10699 10699 10698 10696 10694 10690 10687 10685 10683 10681 10678 10677 10675 10671
10712 10714 10716 10717 10719 10721 10722 10724 10725 10726 10728 10729 10730 10732 10733 10734 10735 10735 10735 10735 10736 10736 10736 10736 10736 10736 10736 10736 10736 10736 10735 10735 10734 10734 10734 10734 10734 10733 10732 10732 10731 10730 10729 10728 10728 10727 10726 10726 10725 10724 10723 10722 10721 10720 10719 10718 10718 10717 10714 10713 10713 10712 10711 10709 10708 10707 10705 10704 10702 10701 10700 10698 10697 10694 10692 10692 10691 10688 10685 10682 10680 10677 10675 10672 10669 10668 10665 10661
10710 10712 10713 10715 10716 10718 10720 10722 10723 10724 10725 10726 10728 10729 10730 10731 10732 10732 10732 10733 10733 10733 10733 10733 10733 10733 10732 10732 10732 10732 10731 10730 10729 10729 10729 10729 10729 10728 10727 10726 10725 10724 10723 10723 10722 10721 10720 10719 10718 10718 10717 10716 10715 10714 10712 10711 10711 10710 10707 10706 10706 10705 10703 10702 10701 10699 10697 10696 10694 10693 10692 10690 10689 10686 10684 10684 10683 10679 10676 10673 10671 10669 10666 10662 10660 10658 10655 10651
10708 10710 10711 10712 10714 10716 10717 10719 10720 10722 10723 10724 10725 10726 10727 10727 10728 10728 10729 10729 10730 10730 10730 10730 10729 10729 10728 10728 10728 10728 10727 10726 10725 10725 10724 10724 10724 10723 10722 10721 10720 10718 10717 10717 10716 10715 10714 10713 10712 10711 10710 10709 10709 10708 10706 10705 10705 10703 10701 10699 10699 10698 10696 10695 10693 10692 10690 10688 10687 10686 10685 10683 10680 10678 10676 10676 10673 10671 10668 10665 10662 10659 10656 10653 10650 10647 10644 10641
10706 10708 10709 10710 10712 10713 10714 10715 10717 10719 10720 10721 10722 10723 10723 10724 10724 10725 10725 10725 10726 10726 10726 10725 10725 10724 10724 10724 10723 10723 10722 10721 10721 10721 10719 10718 10718 10718 10717 10715 10714 10713 10711 10710 10709 10708 10707 10706 10705 10704 10704 10702 10702 10701 10700 10699 10698 10696 10694 10693 10691 10690 10689 10687 10685 10684 10682 10681 10680 10678 10676 10675 10672 10670 10668 10666 10663 10662 10659 10656 10653 10650 10647 10644 10640 10637 10634 10631
10704 10706 10707 10708 10710 10711 10712 10713 10714 10715 10717 10718 10719 10720 10720 10721 10721 10721 10721 10721 10721 10721 10721 10721 10721 10720 10720 10719 10718 10719 10717 10716 10716 10715 10714 10713 10712 10711 10711 10710 10708 10707 10705 10704 10703 10702 10700 10700 10698 10697 10697 10695 10694 10693 10692 10692 10690 10688 10687 10685 10684 10682 10680 10678 10676 10674 10673 10673 10671 10669 10667 10666 10663 10661 10659 10655 10653 10652 10649 10647 10644 10641 10638 10634 10630 10628 10624 10621
10702 10703 10705 10706 10707 10708 10709 10710 10711 10712 10713 10714 10715 10716 10717 10717 10718 10718 10717 10717 10717 10717 10716 10716 10716 10716 10715 10714 10714 10713 10711 10711 10710 10709 10708 10707 10706 10705 10704 10703 10702 10700 10699 10698 10696 10695 10693 10692 10690 10690 10689 10688 10686 10685 10684 10683 10682 10680 10679 10677 10675 10674 10671 10668 10666 10665 10664 10663 10661 10658 10657 10657 10654 10651 10648 10645 10643 10641 10640 10638 10635 10631 10627 10623 10620 10618 10615 10611
10700 10701 10702 10703 10704 10705 10706 10707 10708 10709 10710 10711 10712 10712 10713 10713 10713 10713 10713 10713 10713 10712 10712 10712 10712 10711 10710 10710 10709 10707 10705 10705 10704 10703 10703 10701 10700 10698 10696 10695 10694 10693 10691 10690 10689 10687 10686 10684 10683 10682 10681 10679 10677 10676 10676 10674 10673 10671 10670 10669 10666 10664 10662 10659 10657 10655 10654 10653 10650 10647 10647 10646 10643 10640 10637 10633 10631 10630 10630 10628 10625 10621 10617 10614 10611 10608 10604 10601
10698 10699 10699 10700 10702 10703 10704 10705 10706 10706 10707 10708 10709 10709 10710 10709 10709 10709 10708 10708 10709 10708 10708 10707 10707 10706 10705 10705 10703 10702 10700 10699 10697 10697 10696 10694 10692 10691 10689 10687 10686 10685 10683 10682 10681 10679 10678 10676 10675 10673 10672 10671 10669 10667 10667 10666 10664 10662 10660 10659 10656 10653 10652 10650 10647 10645 10643 10641 10638 10636 10636 10635 10631 10628 10625 10622 10620 10619 10618 10616 10614 10611 10608 10605 10601 10598 10595 10591
10696 10696 10697 10698 10699 10700 10701 10702 10703 10704 10704 10705 10706 10706 10706 10705 10705 10705 10705 10705 10705 10704 10703 10702 10702 10701 10700 10699 10697 10696 10695 10693 10691 10690 10688 10686 10684 10682 10681 10679 10678 10677 10676 10674 10672 10671 10669 10668 10666 10664 10663 10661 10660 10658 10658 10657 10655 10652 10649 10648 10646 10643 10642 10639 10636 10634 10632 10629 10627 10625 10625 10623 10619 10616 10613 10611 10610 10608 10606 10605 10603 10601 10599 10596 10592 10589 10585 10582
10694 10695 10695 10696 10697 10698 10699 10699 10700 10701 10702 10702 10702 10702 10702 10703 10703 10702 10702 10701 10700 10699 10698 10697 10696 10695 10694 10693 10691 10690 10688 10686 10684 10681 10679 10678 10675 10673 10672 10671 10669 10669 10668 10665 10664 10663 10661 10659 10657 10655 10653 10651 10650 10648 10647 10646 10644 10640 10639 10638 10635 10633 10631 10628 10625 10622 10620 10618 10616 10614 10613 10612 10608 10606 10603 10601 10600 10598 10596 10595 10593 10591 10588 10585 10582 10579 10575 10571
10692 10693 10693 10694 10695 10695 10696 10697 10697 10698 10698 10698 10699 10700 10700 10699 10699 10698 10698 10697 10696 10695 10693 10692 10691 10689 10688 10687 10684 10683 10681 10679 10676 10673 10671 10669 10667 10664 10663 10661 10659 10659 10659 10656 10654 10653 10651 10649 10647 10645 10643 10640 10640 10639 10638 10636 10632 10629 10629 10628 10625 10622 10620 10617 10614 10611 10609 10608 10606 10603 10601 10600 10598 10596 10593 10590 10589 10587 10586 10584 10582 10579 10577 10574 10571 10568 10564 10560
10690 10691 10692 10692 10693 10693 10694 10694 10694 10695 10695 10696 10696 10696 10696 10695 10695 10694 10694 10693 10692 10691 10689 10688 10686 10684 10682 10680 10678 10676 10674 10671 10668 10665 10662 10660 10658 10656 10654 10652 10650 10648 10648 10647 10645 10643 10641 10640 10637 10635 10633 10631 10630 10630 10629 10626 10622 10620 10619 10618 10616 10613 10611 10607 10603 10601 10600 10598 10596 10593 10590 10588 10587 10586 10582 10580 10579 10577 10575 10573 10571 10568 10565 10563 10560 10556 10552 10548
10689 10689 10690 10690 10691 10691 10691 10692 10692 10693 10693 10693 10693 10693 10692 10692 10691 10691 10690 10689 10688 10686 10685 10683 10681 10679 10677 10674 10671 10669 10666 10664 10661 10657 10654 10651 10649 10647 10645 10643 10641 10639 10638 10637 10635 10633 10632 10630 10627 10625 10623 10623 10622 10620 10619 10617 10614 10612 10610 10609 10607 10604 10602 10597 10594 10593 10591 10588 10586 10584 10582 10579 10578 10576 10574 10571 10569 10567 10565 10563 10560 10557 10555 10552 10548 10545 10541 10538
10687 10687 10688 10688 10689 10689 10689 10690 10690 10691 10691 10691 10690 10690 10689 10689 10688 10688 10687 10685 10684 10682 10680 10678 10676 10674 10671 10668 10665 10662 10659 10657 10654 10650 10647 10643 10641 10639 10636 10634 10633 10631 10629 10627 10625 10623 10622 10621 10618 10616 10614 10614 10613 10610 10610 10608 10606 10604 10602 10600 10598 10596 10593 10588 10587 10586 10582 10580 10578 10575 10573 10571 10569 10567 10565 10563 10560 10557 10555 10552 10549 10546 10543 10540 10537 10534 10530 10527
10685 10685 10686 10686 10687 10687 10688 10688 10688 10689 10689 10689 10688 10687 10687 10686 10685 10685 10684 10682 10680 10678 10676 10674 10671 10669 10666 10663 10660 10656 10653 10650 10646 10643 10640 10636 10633 10631 10628 10626 10624 10622 10620 10618 10616 10614 10613 10612 10609 10607 10606 10605 10604 10602 10601 10600 10598 10596 10594 10592 10590 10588 10585 10581 10579 10578 10574 10573 10571 10567 10566 10564 10561 10558 10555 10552 10549 10547 10544 10541 10537 10534 10532 10529 10525 10522 10519 10516
10684 10684 10685 10685 10685 10686 10686 10686 10687 10687 10687 10686 10686 10685 10684 10684 10683 10682 10681 10679 10677 10675 10672 10669 10667 10663 10660 10657 10654 10650 10647 10644 10640 10636 10632 10629 10626 10623 10620 10617 10615 10613 10611 10609 10607 10605 10604 10603 10600 10599 10598 10596 10595 10594 10593 10592 10590 10588 10586 10585 10582 10580 10578 10575 10572 10569 10566 10564 10563 10560 10558 10557 10554 10550 10546 10543 10540 10537 10534 10531 10527 10524 10521 10517 10514 10511 10508 10505
10683 10683 10683 10684 10684 10684 10685 10685 10685 10685 10685 10684 10684 10683 10682 10681 10680 10679 10677 10676 10673 10670 10668 10664 10661 10658 10654 10651 10647 10644 10641 10637 10633 10629 10625 10621 10618 10615 10611 10609 10607 10604 10602 10600 10599 10597 10596 10594 10593 10591 10590 10589 10587 10586 10585 10584 10582 10580 10578 10577 10574 10571 10569 10567 10564 10561 10558 10556 10554 10552 10551 10551 10547 10542 10538 10535 10532 10528 10525 10522 10518 10515 10511 10507 10504 10501 10497 10494
10681 10682 10682 10683 10683 10683 10683 10684 10683 10683 10683 10682 10682 10681 10680 10679 10677 10675 10673 10671 10668 10665 10662 10659 10655 10652 10648 10645 10641 10637 10634 10630 10626 10622 10618 10613 10610 10607 10604 10601 10598 10596 10594 10592 10591 10589 10587 10586 10584 10583 10582 10580 10579 10578 10577 10576 10574 10572 10570 10568 10566 10563 10561 10560 10557 10554 10552 10549 10547 10545 10544 10544 10541 10535 10531 10526 10523 10519 10515 10512 10509 10505 10502 10498 10494 10490 10486 10482
10681 10681 10681 10682 10682 10682 10682 10682 10682 10681 10681 10680 10679 10678 10677 10675 10673 10671 10668 10666 10663 10660 10657 10653 10649 10646 10642 10638 10634 10630 10627 10623 10619 10615 10610 10606 10602 10599 10596 10594 10591 10589 10587 10585 10583 10582 10580 10578 10577 10575 10574 10573 10572 10571 10570 10568 10566 10564 10562 10561 10559 10556 10554 10553 10550 10548 10546 10543 10540 10537 10536 10537 10533 10527 10522 10517 10512 10509 10505 10501 10498 10495 10491 10487 10483 10479 10475 10471
10680 10680 10681 10681 10681 10681 10681 10681 10680 10679 10678 10678 10676 10675 10673 10671 10669 10667 10664 10661 10658 10655 10651 10647 10643 10639 10635 10632 10627 10623 10620 10615 10611 10608 10603 10599 10596 10592 10590 10587 10585 10582 10580 10579 10577 10575 10573 10571 10570 10568 10567 10566 10565 10564 10562 10561 10559 10556 10555 10553 10551 10549 10547 10545 10543 10541 10539 10536 10532 10528 10526 10529 10527 10519 10512 10506 10502 10499 10493 10490 10487 10484 10480 10476 10472 10468 10464 10459
10680 10680 10680 10680 10680 10680 10679 10679 10678 10677 10676 10675 10673 10671 10670 10668 10666 10663 10660 10656 10653 10649 10645 10641 10636 10632 10629 10625 10621 10616 10612 10608 10604 10601 10597 10594 10590 10587 10584 10582 10579 10577 10575 10573 10571 10569 10567 10565 10564 10562 10561 10559 10558 10557 10555 10554 10552 10550 10548 10546 10544 10542 10539 10537 10535 10533 10532 10528 10525 10519 10514 10519 10520 10512 10502 10497 10493 10488 10482 10480 10477 10472 10468 10464 10460 10457 10453 10448
10679 10679 10679 10679 10679 10678 10678 10677 10675 10674 10673 10671 10670 10668 10666 10664 10661 10658 10655 10651 10646 10642 10639 10635 10630 10626 10622 10619 10615 10610 10606 10602 10598 10595 10592 10589 10586 10583 10580 10577 10574 10572 10569 10567 10565 10563 10561 10559 10558 10556 10555 10553 10552 10550 10549 10547 10545 10543 10541 10538 10536 10534 10532 10530 10527 10524 10522 10520 10516 10509 10504 10507 10509 10502 10493 10487 10482 10477 10472 10469 10465 10460 10456 10453 10449 10445 10440 10435
10678 10678 10678 10678 10677 10676 10675 10674 10673 10672 10670 10669 10667 10665 10662 10659 10656 10652 10649 10645 10640 10636 10633 10629 10624 10620 10615 10611 10608 10604 10600 10596 10592 10589 10587 10584 10581 10578 10575 10572 10570 10567 10564 10562 10560 10558 10556 10554 10552 10551 10549 10547 10546 10544 10542 10540 10538 10536 10533 10531 10529 10527 10524 10521 10519 10515 10512 10510 10505 10499 10494 10495 10495 10490 10481 10476 10472 10466 10462 10458 10453 10449 10445 10442 10438 10432 10427 10421
10677 10677 10677 10676 10675 10674 10673 10672 10671 10669 10668 10666 10663 10661 10658 10654 10650 10646 10643 10639 10635 10630 10626 10622 10618 10614 10609 10605 10601 10598 10595 10591 10588 10584 10581 10579 10576 10573 10571 10568 10565 10563 10560 10558 10556 10553 10551 10549 10547 10545 10543 10541 10539 10537 10535 10533 10531 10529 10526 10524 10521 10519 10516 10513 10510 10506 10502 10500 10495 10489 10485 10482 10482 10478 10469 10464 10461 10455 10451 10447 10442 10438 10434 10430 10425 10419 10413 10408
10676 10676 10675 10674 10673 10672 10671 10670 10668 10667 10665 10662 10659 10656 10653 10649 10645 10641 10637 10633 10629 10625 10620 10616 10611 10607 10603 10600 10596 10593 10590 10587 10584 10580 10577 10574 10571 10569 10566 10564 10561 10559 10556 10553 10551 10548 10545 10543 10542 10540 10538 10536 10534 10531 10529 10526 10524 10521 10518 10516 10513 10510 10508 10505 10501 10497 10493 10489 10485 10480 10475 10470 10469 10465 10458 10452 10449 10445 10441 10437 10432 10428 10423 10417 10411 10406 10401 10395
10675 10674 10673 10672 10671 10670 10669 10667 10665 10663 10661 10658 10655 10651 10648 10644 10640 10636 10631 10627 10623 10619 10615 10610 10605 10601 10598 10595 10592 10589 10585 10582 10579 10576 10573 10570 10567 10564 10562 10559 10556 10554 10551 10549 10546 10543 10540 10538 10536 10534 10532 10530 10527 10525 10522 10519 10516 10513 10510 10507 10505 10502 10499 10497 10493 10488 10484 10479 10475 10470 10465 10461 10456 10453 10447 10442 10438 10435 10431 10427 10422 10417 10411 10405 10399 10394 10389 10383
10673 10673 10672 10671 10669 10668 10666 10664 10662 10659 10657 10653 10650 10646 10643 10638 10634 10630 10626 10621 10617 10613 10609 10605 10601 10597 10593 10590 10587 10584 10581 10578 10575 10572 10569 10566 10563 10561 10558 10555 10552 10549 10546 10543 10541 10538 10535 10533 10532 10530 10527 10524 10522 10518 10515 10513 10509 10506 10502 10499 10497 10495 10492 10490 10485 10480 10475 10470 10466 10461 10456 10451 10446 10440 10437 10433 10429 10426 10422 10417 10411 10404 10399 10393 10388 10383 10377 10371
10671 10670 10669 10668 10667 10665 10663 10661 10658 10655 10652 10649 10645 10641 10637 10633 10629 10625 10620 10615 10611 10607 10603 10600 10596 10593 10590 10587 10583 10580 10577 10574 10571 10568 10565 10562 10559 10557 10554 10551 10548 10545 10543 10539 10536 10532 10528 10527 10526 10525 10522 10519 10516 10512 10508 10506 10503 10499 10495 10492 10489 10487 10485 10483 10479 10474 10469 10463 10459 10452 10446 10442 10437 10430 10426 10423 10420 10417 10413 10406 10399 10393 10387 10382 10376 10370 10364 10359
10669 10668 10667 10666 10664 10662 10660 10657 10654 10651 10648 10644 10640 10636 10632 10628 10623 10619 10615 10610 10606 10602 10599 10596 10593 10589 10586 10583 10580 10577 10574 10571 10568 10565 10562 10559 10556 10554 10550 10547 10544 10542 10539 10536 10533 10528 10523 10520 10520 10518 10516 10513 10509 10506 10503 10499 10496 10492 10488 10485 10481 10477 10475 10474 10471 10467 10463 10458 10452 10444 10438 10433 10428 10421 10415 10412 10410 10406 10400 10393 10387 10381 10375 10369 10363 10357 10351 10345
10667 10666 10665 10663 10661 10659 10656 10654 10650 10647 10643 10639 10635 10631 10627 10622 10618 10614 10609 10606 10602 10599 10596 10593 10590 10586 10583 10579 10576 10573 10570 10567 10564 10561 10559 10556 10553 10550 10547 10544 10541 10538 10536 10533 10529 10525 10519 10516 10516 10513 10510 10507 10504 10500 10497 10493 10490 10486 10482 10478 10475 10470 10466 10464 10461 10457 10455 10452 10446 10438 10430 10423 10419 10412 10405 10402 10399 10393 10386 10380 10374 10368 10362 10356 10349 10343 10336 10330
10665 10664 10662 10660 10658 10656 10653 10650 10646 10642 10638 10634 10630 10626 10621 10617 10613 10608 10605 10601 10599 10596 10593 10589 10586 10584 10580 10577 10574 10570 10567 10564 10561 10558 10555 10552 10550 10547 10544 10541 10538 10535 10532 10529 10526 10522 10516 10511 10512 10510 10506 10502 10499 10495 10491 10487 10483 10480 10476 10472 10468 10463 10458 10454 10451 10447 10443 10442 10438 10430 10422 10414 10409 10402 10396 10393 10389 10380 10373 10368 10361 10355 10348 10342 10335 10328 10321 10314
10663 10661 10659 10657 10655 10652 10649 10645 10642 10638 10634 10629 10625 10621 10616 10612 10608 10604 10601 10598 10595 10592 10589 10586 10583 10580 10577 10574 10571 10567 10564 10561 10558 10555 10552 10549 10546 10544 10541 10538 10535 10532 10529 10526 10523 10520 10514 10507 10505 10506 10502 10497 10493 10489 10485 10480 10476 10472 10469 10464 10460 10455 10450 10445 10441 10437 10433 10430 10427 10421 10412 10403 10397 10391 10387 10383 10376 10368 10362 10355 10348 10341 10334 10327 10320 10313 10306 10299
10661 10658 10656 10654 10651 10648 10645 10641 10637 10633 10629 10625 10620 10616 10612 10608 10604 10601 10598 10595 10592 10589 10585 10582 10579 10576 10573 10570 10567 10564 10561 10558 10555 10552 10549 10547 10544 10541 10538 10535 10532 10529 10526 10523 10519 10516 10513 10505 10499 10498 10497 10492 10487 10483 10478 10473 10469 10465 10461 10456 10451 10446 10442 10435 10430 10425 10421 10418 10415 10411 10403 10392 10384 10380 10377 10371 10363 10355 10349 10342 10335 10328 10320 10313 10306 10299 10292 10285
10658 10656 10653 10650 10647 10644 10641 10637 10633 10628 10624 10620 10616 10611 10608 10604 10601 10598 10595 10592 10589 10586 10582 10579 10576 10573 10570 10567 10564 10561 10558 10555 10552 10550 10546 10544 10541 10538 10535 10532 10529 10526 10522 10519 10516 10512 10509 10503 10496 10492 10490 10487 10481 10476 10470 10464 10460 10456 10452 10447 10442 10436 10431 10425 10418 10412 10408 10405 10401 10400 10394 10382 10372 10369 10365 10357 10350 10343 10335 10328 10321 10313 10306 10299 10292 10284 10277 10269
10655 10653 10650 10647 10644 10640 10636 10632 10628 10624 10620 10615 10611 10607 10604 10601 10598 10595 10592 10589 10586 10583 10580 10576 10573 10570 10567 10564 10561 10559 10556 10553 10550 10547 10544 10541 10538 10535 10532 10529 10525 10522 10519 10515 10512 10508 10504 10499 10492 10486 10483 10480 10475 10469 10463 10457 10452 10447 10442 10437 10432 10426 10420 10415 10407 10399 10394 10390 10384 10384 10382 10370 10360 10357 10352 10343 10336 10329 10321 10313 10306 10298 10291 10283 10276 10268 10261 10252
10652 10650 10647 10643 10640 10636 10632 10628 10623 10619 10615 10611 10607 10604 10601 10598 10595 10592 10589 10586 10583 10579 10576 10573 10570 10567 10564 10562 10559 10557 10554 10551 10548 10545 10542 10539 10536 10533 10530 10526 10522 10518 10514 10510 10506 10503 10499 10493 10488 10482 10477 10472 10466 10461 10455 10449 10444 10439 10434 10429 10423 10416 10410 10404 10398 10390 10383 10376 10369 10366 10365 10357 10347 10342 10337 10329 10322 10314 10306 10299 10290 10282 10275 10267 10259 10251 10242 10234
10649 10646 10643 10639 10635 10631 10627 10623 10619 10615 10611 10607 10604 10601 10599 10596 10592 10589 10586 10583 10579 10576 10573 10571 10568 10565 10562 10560 10557 10554 10552 10549 10546 10543 10540 10537 10533 10530 10526 10522 10518 10513 10509 10505 10500 10497 10493 10488 10482 10476 10471 10466 10460 10454 10448 10441 10436 10430 10424 10419 10413 10406 10400 10393 10388 10382 10374 10365 10357 10351 10349 10342 10334 10328 10321 10314 10306 10298 10291 10282 10274 10265 10257 10249 10241 10232 10224 10215
10645 10642 10639 10635 10631 10627 10623 10618 10614 10611 10607 10604 10602 10599 10596 10593 10590 10586 10583 10580 10577 10574 10571 10569 10566 10563 10561 10558 10555 10552 10549 10546 10544 10540 10537 10533 10529 10526 10522 10518 10514 10509 10504 10500 10495 10490 10486 10482 10476 10470 10464 10458 10451 10445 10438 10431 10425 10421 10415 10408 10402 10395 10388 10381 10375 10370 10364 10355 10345 10338 10333 10326 10318 10312 10305 10298 10290 10282 10274 10265 10257 10248 10239 10231 10222 10214 10205 10197
10642 10638 10635 10631 10626 10622 10618 10614 10611 10608 10605 10602 10599 10596 10593 10590 10587 10583 10580 10578 10575 10572 10569 10567 10564 10562 10560 10557 10554 10551 10548 10544 10541 10537 10534 10530 10526 10522 10518 10514 10509 10504 10499 10494 10488 10483 10479 10474 10470 10465 10459 10453 10444 10438 10431 10422 10414 10409 10404 10399 10391 10383 10376 10370 10363 10356 10350 10343 10333 10325 10319 10310 10301 10296 10289 10281 10273 10265 10256 10248 10239 10231 10223 10214 10206 10197 10189 10181
10638 10634 10630 10627 10623 10618 10614 10611 10608 10605 10603 10600 10597 10594 10590 10587 10584 10581 10578 10576 10573 10570 10568 10566 10563 10560 10558 10555 10552 10549 10545 10542 10539 10535 10531 10527 10523 10518 10514 10509 10504 10499 10494 10488 10482 10476 10470 10465 10459 10456 10452 10447 10439 10432 10427 10418 10409 10401 10394 10388 10381 10373 10365 10358 10351 10343 10336 10330 10320 10310 10305 10296 10286 10279 10273 10264 10256 10248 10239 10231 10222 10214 10206 10199 10191 10183 10174 10166
10634 10630 10626 10622 10618 10615 10611 10608 10606 10603 10600 10597 10594 10591 10588 10585 10582 10579 10577 10574 10571 10569 10567 10564 10561 10558 10555 10552 10548 10545 10542 10538 10535 10531 10527 10523 10519 10514 10509 10504 10498 10493 10487 10482 10476 10469 10463 10456 10449 10443 10440 10435 10427 10420 10415 10408 10401 10393 10384 10377 10369 10361 10353 10345 10337 10330 10322 10315 10307 10296 10289 10282 10272 10263 10256 10248 10240 10232 10223 10215 10206 10198 10191 10183 10175 10167 10158 10150
10630 10627 10622 10618 10615 10612 10609 10606 10603 10600 10597 10594 10591 10588 10586 10583 10580 10578 10575 10572 10570 10568 10565 10562 10559 10556 10553 10549 10545 10541 10538 10534 10530 10527 10522 10518 10513 10508 10504 10498 10492 10487 10481 10475 10469 10463 10456 10448 10440 10432 10427 10423 10415 10408 10401 10394 10388 10381 10373 10365 10357 10348 10340 10331 10323 10315 10306 10299 10292 10283 10274 10266 10258 10249 10241 10233 10225 10217 10209 10201 10193 10185 10177 10169 10161 10153 10144 10135
10627 10623 10619 10615 10612 10609 10606 10603 10601 10598 10595 10592 10589 10586 10584 10581 10578 10576 10573 10571 10569 10566 10563 10560 10557 10554 10551 10547 10544 10540 10535 10531 10526 10522 10517 10512 10507 10502 10497 10492 10486 10480 10475 10468 10462 10456 10449 10442 10433 10423 10416 10411 10404 10396 10389 10381 10374 10367 10360 10352 10343 10334 10325 10316 10307 10299 10290 10282 10276 10269 10259 10251 10244 10236 10228 10221 10213 10206 10197 10189 10180 10172 10164 10155 10147 10139 10130 10120
10623 10619 10615 10612 10610 10607 10604 10601 10598 10595 10592 10589 10587 10584 10582 10579 10577 10575 10573 10570 10567 10565 10562 10558 10555 10552 10549 10546 10542 10539 10535 10530 10524 10519 10513 10508 10503 10497 10491 10486 10480 10474 10468 10462 10455 10449 10442 10435 10427 10417 10408 10400 10393 10384 10377 10369 10360 10353 10345 10337 10328 10319 10310 10301 10293 10284 10276 10268 10261 10253 10245 10236 10229 10221 10214 10207 10200 10192 10184 10175 10166 10159 10151 10142 10133 10125 10116 10106
10619 10616 10613 10610 10607 10604 10602 10598 10595 10593 10590 10588 10585 10583 10580 10578 10576 10573 10571 10569 10565 10562 10559 10556 10553 10550 10546 10543 10539 10535 10531 10527 10522 10517 10511 10504 10499 10493 10487 10480 10474 10468 10461 10455 10448 10442 10435 10428 10420 10411 10401 10392 10383 10372 10364 10356 10347 10339 10331 10322 10314 10306 10297 10288 10279 10271 10263 10256 10247 10239 10232 10224 10216 10208 10200 10193 10186 10179 10171 10163 10154 10146 10138 10130 10121 10112 10102 10093
10616 10613 10610 10608 10605 10602 10599 10596 10593 10591 10589 10586 10584 10582 10579 10577 10575 10572 10569 10566 10563 10560 10557 10554 10550 10547 10543 10539 10535 10530 10526 10521 10516 10512 10506 10500 10494 10488 10481 10474 10468 10461 10454 10448 10441 10434 10427 10419 10412 10404 10393 10383 10374 10363 10352 10343 10335 10326 10318 10309 10301 10293 10284 10275 10266 10257 10252 10246 10238 10230 10222 10215 10207 10200 10192 10183 10175 10169 10161 10153 10146 10137 10127 10119 10110 10101 10092 10083
10613 10610 10608 10605 10602 10599 10597 10594 10592 10589 10587 10585 10583 10580 10578 10576 10573 10571 10567 10564 10561 10558 10555 10551 10548 10544 10539 10535 10530 10525 10520 10515 10510 10505 10499 10493 10487 10481 10474 10468 10461 10454 10447 10440 10432 10425 10417 10409 10401 10394 10385 10374 10364 10354 10343 10333 10324 10315 10306 10298 10290 10281 10273 10265 10255 10247 10242 10237 10230 10222 10214 10207 10200 10192 10185 10176 10167 10160 10151 10143 10136 10128 10117 10107 10098 10089 10080 10071